Weather in Audio

Russia / Saint-Petersburg and Leningrad Oblast     60°08′02″N   30°29′26″E
temp.,
°C
wind,
m/s
gust,
m/s
humid.,
%
clouds,
%
prec.,
mm/h
press.,
hPa
HPBL,
m
4 july, mon
mon400:00+15wsw28833 0.0 1017160
03:00+14wsw27915 0.0 1017133
06:00+16wsw23852 0.0 1017144
09:00+22sw22565 0.0 1016527
12:00+26wsw224518 0.0 10151516
15:00+27wnw224497 0.0 10141852
18:00+26wsw334512 0.0 10141170
21:00+20wsw23660 0.0 101372
5 july, tue
tue500:00+16sw11686 0.0 101311
03:00+18wsw245782 0.0 101290
06:00+18ssw237499 0.2 101282
09:00+17ssw1495100 1.6 1012174
12:00+23wsw356524 0.6 10111169
15:00+26wsw57342 0.6 10111591
18:00+25wsw564138 0.0 10111453
21:00+19w486531 0.0 1011580
6 july, wed
wed600:00+15wsw3116895 0.0 1013429
03:00+13wsw311850 0.0 1013406
06:00+14sw39850 0.0 1013395
09:00+19wsw465612 0.0 10131086
12:00+21wsw464473 0.0 10131779
15:00+22wsw4544100 0.0 10121625
18:00+21wsw2443100 0.0 10111194
21:00+18nw11607 0.0 101028
7 july, thu
thu700:00+13w118124 0.0 101011
03:00+12wsw229019 0.1 101033
06:00+14sw27875 0.0 1010219
09:00+19w34575 0.0 10111052
12:00+21wsw564819 0.0 10121700
15:00+22wsw564392 0.0 10122145
18:00+20wsw464935 0.0 10121061
21:00+16ssw116754 0.0 101214
8 july, fri
fri800:00+13ssw247919 0.0 101368
03:00+14ssw2777100 0.0 1013209
06:00+13sw2593100 0.3 1014162
09:00+14sw2795100 0.9 1014366
12:00+17wsw3682100 0.4 1014733
15:00+15sw3794100 1.8 1014575
18:00+14sw2697100 0.8 1014392
21:00+14wsw2697100 0.8 1014321